Meath Environmental Platform

Observations

Time Sensor AQI SAQ Temp °C Hum % Pres Pa CO μg/m³ H₂S μg/m³ NO μg/m³ NO₂ μg/m³ O₃ μg/m³ SO₂ μg/m³ CO₂e PPM VOC PPM PM1 μg/m³ PM2.5 μg/m³ PM4 μg/m³ PM10 μg/m³ TPS µm
Wednesday 12 August 2026
06:58 Trim Patrick St 2 20.3 69 38,460 0.07 0 1.51 6.59 51.36 0 7.14 11.72 12.89
06:57 Trim Patrick St 2 20.3 69 38,460 0.06 0 1.58 12.12 48.44 0 9.71 13.89 15.28
06:56 Trim Patrick St 2 20.2 69 38,460 0.07 0 1.51 8.06 51.98 0 8 12.43 13.67
06:54 Trim Market St 2 20.6 67 56,787 0.14 0 1.16 10.67 66.65 0 4.28 5.66 8.18
06:54 Trim Patrick St 2 20.2 69 38,460 0.06 0 1.37 6.19 50 0 8 13.17 14.49
06:53 Trim Patrick St 2 20.1 69 38,460 0.07 0 1.23 9.96 46.59 0 8 13.16 14.48
06:52 Trim Market St 2 20.5 67 56,750 0.11 0 1.18 9.84 73.45 0 4.28 5.65 8.17
06:52 Trim Patrick St 2 20.1 69 38,460 0.06 0 1.14 8.12 48.58 0 9.71 13.87 15.25
06:51 Trim Patrick St 2 20 69 38,460 0.06 0 1.18 11.23 59.82 0 7.14 12.46 13.7
06:50 Trim Market St 2 20.4 67 56,739 0.13 0 1.19 12.94 66.31 0 4.28 5.64 8.17
06:50 Trim Patrick St 2 20 69 38,460 0.06 0 1.16 9.05 52.66 0 8 11.73 12.91
06:49 Trim Patrick St 2 20 69 38,460 0.06 0 1.14 10.7 57.13 0 8 12.41 13.66
06:48 Trim Market St 2 20.3 67 56,721 0.14 0 1.18 9.53 65.06 0 3.56 5.63 10.74
06:48 Trim Patrick St 2 19.9 70 38,460 0.06 0 1.19 12.45 54.6 0 9.71 14.53 15.98
06:46 Trim Patrick St 2 19.8 69 38,460 0.06 0 1.14 9.89 50.58 0 6.29 11.74 12.91
06:43 Trim Market St 2 20.1 68 56,651 0.12 0 1.24 10.73 74.23 0 4.28 5.62 8.17
06:43 Trim Patrick St 2 19.7 70 38,460 0.06 0 1.26 7.27 50.46 0 8 12.32 13.55
06:42 Trim Market St 2 20.1 68 56,643 0.12 0 1.24 10.71 67.15 0 3.56 5.61 8.81
06:42 Trim Patrick St 2 19.7 70 38,460 0.06 0.51 1.22 27.54 49.05 0 7.14 11.6 12.76
06:41 Trim Market St 2 20.1 68 56,645 0.12 0 1.18 14.71 62.97 0 4.28 5.61 8.81